[[{"header":{"parameterUnit":"m.s-1","parameterCategory":1,"la1":30.2992,"la2":30.254,"lo1":-89.0895,"lo2":-89.0443,"dy":0.0025,"dx":0.0025,"nx":19,"ny":19,"refTime":"2026-04-17T09:00:00:Z","depth":0,"parameterNumber":2,"parameterNumberName":"U-component_of_WINDS"},"data":[0,0,0,2.2486,2.2489,2.2633,2.2634,2.2819,2.282,0,0,0,0,0,0,0,0,0,0,0,2.2446,2.2447,2.2486,2.249,2.2633,2.2634,2.2818,2.282,0,0,0,0,0,0,0,0,0,0,0,2.2445,2.2447,2.2448,2.249,2.2633,2.2634,2.2818,2.2709,0,0,0,0,0,0,0,0,0,0,2.2569,2.2534,2.2446,2.2449,2.2491,2.2633,2.2634,2.2704,2.2716,2.2754,0,2.2791,0,2.2808,2.2833,2.2834,0,0,0,2.2488,2.2524,2.2561,2.2449,2.2492,2.2633,2.2568,2.271,2.2724,2.277,2.2793,2.28,2.2811,2.2834,2.2835,2.3063,2.3064,0,0,2.248,2.2473,2.2551,2.257,2.2549,2.2563,2.2572,2.2719,2.2743,2.2794,2.2804,2.2814,2.2835,2.2837,2.3062,2.3063,0,0,0,2.2458,2.2467,2.25,2.2562,2.2588,2.2567,2.2578,2.2736,2.2747,2.2806,2.2817,2.2836,2.2839,2.3061,2.3063,2.3109,0,0,0,2.2453,2.2455,2.2497,2.2494,2.2585,2.2664,2.2592,2.2737,2.2754,2.2816,2.2836,2.2841,2.306,2.3062,2.3105,2.3131,0,0,0,2.2436,2.2453,2.2474,2.2493,2.2555,2.2662,2.2682,2.2741,2.2761,2.2834,2.2841,2.3059,2.3061,2.3101,2.3125,2.3185,0,0,0,2.2415,2.2516,2.2475,2.2592,2.2554,2.2691,2.2681,2.2784,2.2852,2.2837,2.306,2.3062,2.31,2.3122,2.3181,2.3231,2.3253,0,0,2.2539,2.2531,2.26,2.2567,2.2709,2.2669,2.2818,2.2888,2.2903,2.3008,2.3014,2.3106,2.3125,2.3184,2.3381,2.3398,0,0,0,2.2637,2.2686,2.2725,2.2789,2.2845,2.2893,2.2941,2.2967,2.3056,2.2956,2.3146,2.3158,2.3193,2.3217,2.3231,2.3259,2.3074,2.3074,2.3074,2.28,2.2811,2.2925,2.2953,2.3015,2.3062,2.3112,2.3154,2.315,2.3194,2.3224,2.3343,2.3371,2.3381,2.3411,2.3255,2.3256,2.3256,2.3256,2.2979,2.3048,2.3037,2.3142,2.3153,2.3242,2.329,2.3283,2.3365,2.3322,2.3353,2.3301,2.3399,2.3425,2.326,2.3259,2.3259,2.3258,2.3258,2.3084,2.3118,2.3147,2.3237,2.3306,2.3331,2.3409,2.3418,2.3426,2.3458,2.3487,2.3486,2.3483,2.3472,2.3472,2.3473,2.3473,2.3473,2.3474,2.3179,2.321,2.3275,2.334,2.3379,2.3433,2.3479,2.3519,2.3564,2.3563,2.3563,2.3551,2.3409,2.337,2.348,2.3479,2.3478,2.3477,2.3477,2.3349,2.3311,2.3411,2.3451,2.3525,2.3589,2.3599,2.3677,2.3711,2.3749,2.373,2.3625,2.3617,2.3606,2.3574,2.373,2.373,2.373,2.373,2.3434,2.3431,2.3532,2.3594,2.3656,2.3674,2.3783,2.3819,2.385,2.3871,2.3851,2.381,2.3798,2.3798,2.3782,2.3752,2.395,2.395,2.395,2.3536,2.3539,2.3631,2.366,2.3718,2.3767,2.3868,2.3938,2.3967,2.3959,2.3886,2.3877,2.3812,2.3791,2.3778,2.3754,2.3699,0,0]},{"header":{"parameterUnit":"m.s-1","parameterCategory":1,"la1":30.2992,"la2":30.254,"lo1":-89.0895,"lo2":-89.0443,"dy":0.0025,"dx":0.0025,"nx":19,"ny":19,"refTime":"2026-04-17T09:00:00:Z","depth":0,"parameterNumber":3,"parameterNumberName":"V-component_of_WINDS"},"data":[0,0,0,1.5824,1.5825,1.588,1.5881,1.5959,1.596,0,0,0,0,0,0,0,0,0,0,0,1.5813,1.5814,1.5824,1.5825,1.588,1.5881,1.5959,1.596,0,0,0,0,0,0,0,0,0,0,0,1.5813,1.5814,1.5814,1.5825,1.588,1.5881,1.5959,1.5914,0,0,0,0,0,0,0,0,0,0,1.5859,1.5855,1.5813,1.5814,1.5826,1.588,1.5881,1.5912,1.5917,1.5937,0,1.5958,0,1.596,1.5965,1.5966,0,0,0,1.5821,1.5851,1.586,1.5815,1.5826,1.588,1.5854,1.5914,1.592,1.5944,1.5959,1.5962,1.5961,1.5966,1.5966,1.6099,1.61,0,0,1.5818,1.5826,1.5856,1.5864,1.5857,1.5853,1.5856,1.5918,1.5934,1.5959,1.5963,1.5963,1.5967,1.5967,1.6098,1.6099,0,0,0,1.5812,1.5824,1.5832,1.5861,1.5871,1.5854,1.5858,1.5932,1.5933,1.5964,1.5964,1.5967,1.5968,1.6097,1.6098,1.6146,0,0,0,1.581,1.5821,1.5831,1.5837,1.587,1.5902,1.5871,1.5929,1.5936,1.5963,1.5967,1.5969,1.6096,1.6098,1.6142,1.6167,0,0,0,1.5807,1.582,1.583,1.5837,1.5861,1.5901,1.5906,1.593,1.5936,1.5966,1.5969,1.6096,1.6098,1.6139,1.6162,1.6202,0,0,0,1.5807,1.5873,1.5831,1.5904,1.5861,1.593,1.5906,1.5957,1.5989,1.5968,1.6096,1.6098,1.6139,1.6159,1.6199,1.6238,1.6255,0,0,1.5895,1.5884,1.5926,1.589,1.5969,1.5921,1.6006,1.6028,1.6023,1.6074,1.6077,1.6143,1.6162,1.6202,1.6348,1.6361,0,0,0,1.5956,1.5986,1.6005,1.6035,1.6052,1.6068,1.6076,1.6083,1.6125,1.6051,1.6169,1.618,1.6203,1.6221,1.6232,1.6251,1.6107,1.6107,1.6107,1.6092,1.6082,1.6149,1.6145,1.6174,1.6179,1.6201,1.6212,1.6194,1.6222,1.6237,1.6327,1.6348,1.6356,1.6376,1.6257,1.6257,1.6257,1.6257,1.6218,1.6259,1.6231,1.6287,1.6275,1.6321,1.6328,1.6313,1.6354,1.6315,1.6335,1.6294,1.6371,1.6388,1.6261,1.626,1.626,1.6259,1.6259,1.6306,1.6323,1.633,1.6369,1.6401,1.6394,1.6433,1.6421,1.641,1.643,1.6443,1.6442,1.6439,1.6437,1.6437,1.6438,1.6438,1.6438,1.6438,1.6394,1.64,1.6435,1.6456,1.6471,1.6491,1.6494,1.6509,1.6523,1.6511,1.6511,1.6489,1.6381,1.6354,1.6443,1.6442,1.6442,1.6441,1.6441,1.6525,1.6492,1.6546,1.6562,1.6584,1.6614,1.6598,1.6629,1.6639,1.6658,1.6632,1.6554,1.6543,1.6533,1.6511,1.6635,1.6635,1.6635,1.6635,1.6598,1.659,1.664,1.6666,1.6689,1.6678,1.6737,1.6739,1.6737,1.6742,1.6723,1.6691,1.6682,1.6676,1.6664,1.6642,1.6797,1.6797,1.6797,1.6677,1.667,1.6723,1.672,1.6735,1.6748,1.6803,1.6832,1.6822,1.6803,1.6746,1.6739,1.6688,1.6673,1.6653,1.6635,1.6595,0,0]}]]